User: anonymous   Login
Location: Nag� el Ma?a??a
(24.0667°N, 32.8833°E)
Time: 23:01:46
(UTC+00:00)
Language:

Tiangong - Orbit

View from above orbital plane
View from above orbital plane
View from above satellite
View from above satellite

Ground track
Ground track

The orbit data is extracted from the following two-line orbital elements,

1 48274U 21035A   21337.43913927  .00012462  00000-0  14328-3 0  9996
2 48274  41.4706 331.2921 0003180 147.6763  10.0196 15.61823188 34160
Epoch (UTC): 03 December 2021 10:32:21
Eccentricity: 0.0003180
inclination: 41.4706°
perigee height: 380 km
apogee height: 384 km
right ascension of ascending node: 331.2921°
argument of perigee: 147.6763°
revolutions per day: 15.61823188
mean anomaly at epoch: 10.0196°
orbit number at epoch: 3416

The dashed part of the orbit path shows where the satellite is in the earth's shadow,  

DLR